[[{"header":{"parameterUnit":"m.s-1","parameterCategory":1,"la1":30.2991,"la2":30.254,"lo1":-89.0895,"lo2":-89.0444,"dy":0.0017,"dx":0.0017,"nx":28,"ny":28,"refTime":"2023-10-31T21:00:00:Z","depth":0,"parameterNumber":2,"parameterNumberName":"U-component_of_WINDS"},"data":[0,0,0,0,0,0,0,0,0,0,0,0,0,0,0,0,0,0,0,0,0,0,0,0,0,0,0,0,0,0,0,0,0,0,0,0,0,0,0,0,0,0,0,0,0,0,0,0,0,0,0,0,0,0,0,0,0,0,-5.4387,-5.4388,0,-5.4503,-5.4505,-5.4506,-5.4332,-5.4326,-5.432,-5.4315,-5.4437,-5.4445,-5.4454,0,0,0,0,0,0,0,0,0,0,0,0,0,-5.4014,-5.4022,-5.4386,-5.4388,-5.4389,-5.4503,-5.4505,-5.4506,-5.4334,-5.4326,-5.4319,-5.4312,-5.4434,-5.4444,-5.4455,0,0,0,0,0,0,0,0,0,0,0,0,0,-5.4158,-5.4025,-5.4386,-5.4317,-5.4312,-5.4503,-5.4505,-5.4507,-5.4335,-5.4326,-5.4317,-5.4308,-5.443,-5.4443,-5.4456,-5.4722,0,0,-5.4497,-5.4503,0,0,0,0,0,0,0,0,-5.415,-5.4172,-5.4326,-5.4322,-5.4317,-5.4394,-5.4418,-5.4579,-5.4337,-5.4326,-5.4314,-5.4304,-5.443,-5.4443,-5.4485,-5.4728,-5.4733,-5.4499,-5.4507,-5.4512,-5.4516,0,0,0,0,0,0,0,-5.4141,-5.4166,-5.4433,-5.4328,-5.4323,-5.428,-5.429,-5.4448,-5.4428,-5.4327,-5.4314,-5.433,-5.4426,-5.4472,-5.4487,-5.4735,-5.4498,-5.451,-5.4518,-5.4524,-5.52,-5.5209,0,0,0,0,0,0,-5.4139,-5.4159,-5.4429,-5.4436,-5.4209,-5.4294,-5.4306,-5.4378,-5.4426,-5.4424,-5.4338,-5.4322,-5.4454,-5.4471,-5.449,-5.4803,-5.4512,-5.4525,-5.4533,-5.519,-5.5202,-5.5213,0,0,0,0,0,0,-5.4132,-5.4165,-5.4424,-5.4294,-5.4324,-5.431,-5.4393,-5.4386,-5.4432,-5.4434,-5.443,-5.4389,-5.4448,-5.4471,-5.4665,-5.4805,-5.4531,-5.4543,-5.5178,-5.5194,-5.5207,-5.5432,0,0,0,0,0,0,-5.4122,-5.4163,-5.4264,-5.4298,-5.4332,-5.4598,-5.4402,-5.4394,-5.4455,-5.4435,-5.4481,-5.448,-5.4442,-5.4646,-5.4679,-5.4818,-5.4554,-5.5166,-5.5185,-5.5203,-5.5412,-5.5453,-5.5487,0,0,0,0,0,-5.4109,-5.4323,-5.4269,-5.4303,-5.4457,-5.4606,-5.4625,-5.4577,-5.4467,-5.4568,-5.457,-5.4479,-5.4785,-5.4667,-5.4702,-5.4848,-5.5157,-5.518,-5.5201,-5.5395,-5.5445,-5.5486,0,0,0,0,0,0,-5.4306,-5.4326,-5.4267,-5.4498,-5.4552,-5.4576,-5.4702,-5.4631,-5.4717,-5.4695,-5.4631,-5.4643,-5.4851,-5.4869,-5.4738,-5.5107,-5.4952,-5.4983,-5.5088,-5.5135,-5.5172,-5.5163,-5.4565,0,0,0,0,0,-5.4376,-5.4495,-5.4506,-5.4709,-5.4739,-5.4717,-5.478,-5.4737,-5.479,-5.4812,-5.4828,-5.4883,-5.4991,-5.5064,-5.5164,-5.5414,-5.5421,-5.5531,-5.5569,-5.56,-5.5627,-5.576,-5.5809,-5.5286,-5.5286,-5.5286,0,0,-5.4523,-5.4548,-5.4628,-5.475,-5.4786,-5.491,-5.4737,-5.4876,-5.4968,-5.4833,-5.5017,-5.5031,-5.5088,-5.5311,-5.541,-5.5333,-5.5773,-5.5629,-5.5653,-5.5663,-5.5788,-5.5837,-5.5881,-5.5301,-5.5299,-5.5296,0,0,-5.4853,-5.4885,-5.5057,-5.5097,-5.5153,-5.5137,-5.5179,-5.5215,-5.5218,-5.5401,-5.5302,-5.5411,-5.5599,-5.5644,-5.5691,-5.6039,-5.5958,-5.6073,-5.627,-5.64,-5.6442,-5.6478,-5.6601,-5.6646,-5.61,-5.6101,-5.6101,0,-5.5028,-5.5212,-5.5155,-5.5301,-5.5357,-5.524,-5.5414,-5.5456,-5.5543,-5.5585,-5.5497,-5.573,-5.576,-5.5991,-5.6076,-5.6119,-5.6164,-5.6067,-5.644,-5.6476,-5.6509,-5.6625,-5.6672,-5.6114,-5.6113,-5.6111,-5.611,0,-5.5424,-5.5552,-5.5685,-5.5771,-5.5842,-5.6002,-5.5969,-5.6048,-5.6,-5.5993,-5.6181,-5.6213,-5.6317,-5.6369,-5.6324,-5.6595,-5.6545,-5.645,-5.6293,-5.6573,-5.6681,-5.6726,-5.6134,-5.6129,-5.6125,-5.6122,0,0,-5.5881,-5.5933,-5.5983,-5.602,-5.6074,-5.6172,-5.6327,-5.6427,-5.6496,-5.6561,-5.6688,-5.685,-5.6762,-5.6816,-5.6775,-5.689,-5.7162,-5.678,-5.678,-5.6849,-5.7461,-5.7531,-5.7584,-5.7109,-5.7117,-5.7124,-5.7455,0,-5.621,-5.6475,-5.6428,-5.6686,-5.6804,-5.6695,-5.6829,-5.6877,-5.6875,-5.6975,-5.6972,-5.7087,-5.6963,-5.6995,-5.7104,-5.7106,-5.7283,-5.7081,-5.7227,-5.7233,-5.7215,-5.764,-5.7715,-5.8027,-5.7498,-5.7505,-5.751,0,-5.6628,-5.6707,-5.6977,-5.7011,-5.7059,-5.718,-5.7268,-5.7365,-5.7418,-5.7408,-5.7469,-5.7406,-5.756,-5.7401,-5.7612,-5.7476,-5.7533,-5.7543,-5.7554,-5.7565,-5.7388,-5.7662,-5.8125,-5.8172,-5.7576,-5.7571,-5.7566,0,-5.6934,-5.7107,-5.729,-5.7326,-5.7371,-5.7459,-5.7482,-5.7525,-5.7589,-5.7666,-5.7706,-5.7802,-5.7854,-5.7929,-5.7894,-5.7782,-5.8112,-5.795,-5.8108,-5.8109,-5.8181,-5.8177,-5.8659,-5.822,-5.822,-5.8219,-5.8218,0,-5.7305,-5.7474,-5.7428,-5.7541,-5.7727,-5.7672,-5.7858,-5.7868,-5.7907,-5.802,-5.7932,-5.804,-5.7987,-5.8092,-5.8066,-5.8244,-5.8269,-5.8265,-5.8256,-5.8272,-5.8273,-5.8308,-5.8285,-5.8231,-5.8228,-5.8226,-5.8224,0,-5.7677,-5.7653,-5.7846,-5.7873,-5.7883,-5.8019,-5.8042,-5.8148,-5.8139,-5.8283,-5.8313,-5.83,-5.8418,-5.8391,-5.8521,-5.8503,-5.8727,-5.8691,-5.8709,-5.87,-5.8859,-5.8844,-5.9379,-5.9446,-5.8966,-5.8971,-5.8974,0,-5.7915,-5.8042,-5.8082,-5.8151,-5.8181,-5.8293,-5.8357,-5.8308,-5.8378,-5.8447,-5.8545,-5.8655,-5.874,-5.8935,-5.8937,-5.9036,-5.9001,-5.9182,-5.9015,-5.9028,-5.9002,-5.8995,-5.9007,-5.9215,-5.922,-5.9225,-5.9228,0,-5.8339,-5.8321,-5.8416,-5.8508,-5.8586,-5.8656,-5.8718,-5.878,-5.8735,-5.8819,-5.8938,-5.9005,-5.9136,-5.9247,-5.9338,-5.9362,-5.9289,-5.9281,-5.9322,-5.934,-5.9345,-5.9343,-5.8798,-5.9269,-5.9265,-5.9262,-5.926,-5.9258,-5.865,-5.8758,-5.8803,-5.8912,-5.8953,-5.9012,-5.9112,-5.9116,-5.9214,-5.9317,-5.9282,-5.9419,-5.9467,-5.9582,-5.9617,-5.9723,-5.9655,-5.9715,-5.973,-5.9746,-5.9765,-5.9329,-5.974,-5.9739,-5.9738,-5.9737,-5.9736,0,-5.9069,-5.9092,-5.9193,-5.9281,-5.9367,-5.929,-5.9354,-5.9431,-5.9552,-5.9603,-5.9689,-5.9826,-5.9933,-5.9943,-6.0044,-6.0127,-6.0096,-6.0155,-6.0148,-6.0154,-5.9821,-5.9774,-6.0179,-6.0178,-6.0178,-6.0178,-6.0178,-6.0178,-5.9296,-5.9474,-5.9461,-5.9658,-5.968,-5.9812,-5.9856,-5.991,-5.9951,-6.0107,-6.0195,-6.0201,-6.0236,-6.0339,-6.0433,-6.0434,-6.0474,-6.0547,-6.0534,-6.0222,-6.0178,-6.0136,-6.0092,-6.0556,-6.0557,-6.0859,-6.0861,-6.0864]},{"header":{"parameterUnit":"m.s-1","parameterCategory":1,"la1":30.2991,"la2":30.254,"lo1":-89.0895,"lo2":-89.0444,"dy":0.0017,"dx":0.0017,"nx":28,"ny":28,"refTime":"2023-10-31T21:00:00:Z","depth":0,"parameterNumber":3,"parameterNumberName":"V-component_of_WINDS"},"data":[0,0,0,0,0,0,0,0,0,0,0,0,0,0,0,0,0,0,0,0,0,0,0,0,0,0,0,0,0,0,0,0,0,0,0,0,0,0,0,0,0,0,0,0,0,0,0,0,0,0,0,0,0,0,0,0,0,0,-2.806,-2.806,0,-2.8079,-2.8079,-2.808,-2.8096,-2.8097,-2.8097,-2.8097,-2.8114,-2.8114,-2.8115,0,0,0,0,0,0,0,0,0,0,0,0,0,-2.8032,-2.8033,-2.806,-2.806,-2.806,-2.8079,-2.8079,-2.808,-2.8096,-2.8097,-2.8097,-2.8097,-2.8114,-2.8114,-2.8115,0,0,0,0,0,0,0,0,0,0,0,0,0,-2.8047,-2.8033,-2.806,-2.8071,-2.8072,-2.8079,-2.8079,-2.808,-2.8096,-2.8097,-2.8097,-2.8097,-2.8114,-2.8114,-2.8115,-2.8111,0,0,-2.8116,-2.8116,0,0,0,0,0,0,0,0,-2.8046,-2.8048,-2.8069,-2.807,-2.8072,-2.8086,-2.8076,-2.809,-2.8096,-2.8087,-2.8097,-2.8097,-2.8104,-2.8106,-2.8108,-2.8112,-2.8113,-2.8116,-2.8116,-2.8117,-2.8117,0,0,0,0,0,0,0,-2.8045,-2.8047,-2.8067,-2.8069,-2.8071,-2.8073,-2.8076,-2.8079,-2.8094,-2.8088,-2.8089,-2.8091,-2.8105,-2.8108,-2.8109,-2.8113,-2.8116,-2.8116,-2.8117,-2.8117,-2.8111,-2.8111,0,0,0,0,0,0,-2.8043,-2.8047,-2.8067,-2.8068,-2.806,-2.8074,-2.8076,-2.8081,-2.8094,-2.8096,-2.8091,-2.8092,-2.8107,-2.8108,-2.811,-2.8104,-2.8117,-2.8117,-2.8117,-2.8112,-2.8111,-2.8111,0,0,0,0,0,0,-2.8042,-2.8045,-2.8066,-2.8058,-2.806,-2.8074,-2.8079,-2.8081,-2.8084,-2.8096,-2.8099,-2.8092,-2.8107,-2.8109,-2.811,-2.8105,-2.8117,-2.8117,-2.8112,-2.8112,-2.8111,-2.8095,0,0,0,0,0,0,-2.8042,-2.8044,-2.8045,-2.8057,-2.8061,-2.8068,-2.8078,-2.8081,-2.8085,-2.8087,-2.8097,-2.8099,-2.8108,-2.811,-2.8111,-2.8106,-2.8118,-2.8113,-2.8112,-2.8111,-2.8096,-2.8094,-2.8092,0,0,0,0,0,-2.8041,-2.804,-2.8045,-2.8047,-2.8062,-2.8067,-2.8069,-2.808,-2.8085,-2.8084,-2.8091,-2.8099,-2.8106,-2.811,-2.8111,-2.8106,-2.8113,-2.8112,-2.8111,-2.8097,-2.8094,-2.8092,0,0,0,0,0,0,-2.8026,-2.8042,-2.8047,-2.8051,-2.8058,-2.807,-2.807,-2.8077,-2.8082,-2.8083,-2.8095,-2.8097,-2.8096,-2.8102,-2.8106,-2.8102,-2.811,-2.811,-2.8099,-2.8096,-2.8094,-2.8093,-2.8118,0,0,0,0,0,-2.8023,-2.8028,-2.8041,-2.8042,-2.8045,-2.8057,-2.806,-2.8067,-2.8074,-2.8077,-2.8085,-2.809,-2.8093,-2.8095,-2.8099,-2.8097,-2.8098,-2.8094,-2.8092,-2.809,-2.8089,-2.8085,-2.8083,-2.8108,-2.8108,-2.8108,0,0,-2.8017,-2.8026,-2.8029,-2.8039,-2.8046,-2.8048,-2.8059,-2.8063,-2.8064,-2.8077,-2.8079,-2.8084,-2.8091,-2.809,-2.8089,-2.8094,-2.8083,-2.8089,-2.8088,-2.8088,-2.8084,-2.8082,-2.808,-2.8107,-2.8108,-2.8108,0,0,-2.8008,-2.8016,-2.8017,-2.8023,-2.8032,-2.8039,-2.8039,-2.805,-2.8054,-2.8055,-2.8064,-2.8065,-2.8071,-2.8075,-2.8078,-2.8066,-2.8072,-2.8067,-2.8056,-2.8052,-2.805,-2.8049,-2.8042,-2.804,-2.8066,-2.8066,-2.8066,0,-2.8,-2.8005,-2.8017,-2.8019,-2.8022,-2.8034,-2.8033,-2.8038,-2.8047,-2.8048,-2.8053,-2.8058,-2.8064,-2.8062,-2.8059,-2.8062,-2.806,-2.8066,-2.805,-2.8048,-2.8047,-2.8041,-2.8039,-2.8065,-2.8065,-2.8065,-2.8065,0,-2.7993,-2.7997,-2.7996,-2.8005,-2.8008,-2.8008,-2.8018,-2.8019,-2.8025,-2.8031,-2.803,-2.8037,-2.8041,-2.8041,-2.8048,-2.8039,-2.8041,-2.8048,-2.8056,-2.8043,-2.8038,-2.8036,-2.8064,-2.8064,-2.8064,-2.8064,0,0,-2.7978,-2.799,-2.7989,-2.7992,-2.8001,-2.8003,-2.8003,-2.8007,-2.8007,-2.8012,-2.801,-2.8013,-2.8018,-2.8021,-2.8028,-2.8024,-2.8011,-2.8031,-2.8031,-2.8025,-2.7999,-2.7993,-2.7991,-2.8016,-2.8015,-2.8015,-2.7998,0,-2.7969,-2.797,-2.7979,-2.7977,-2.7978,-2.7988,-2.7987,-2.7991,-2.7996,-2.7997,-2.8001,-2.8003,-2.8011,-2.8012,-2.8009,-2.8014,-2.8006,-2.8015,-2.8012,-2.8012,-2.8009,-2.7988,-2.7983,-2.7967,-2.7996,-2.7996,-2.7996,0,-2.796,-2.7963,-2.7961,-2.7967,-2.7968,-2.7968,-2.797,-2.7972,-2.7975,-2.7978,-2.798,-2.7987,-2.7984,-2.7992,-2.7988,-2.7994,-2.7993,-2.7995,-2.7994,-2.7993,-2.8003,-2.7985,-2.7962,-2.7959,-2.7993,-2.7993,-2.7993,0,-2.7946,-2.795,-2.7949,-2.7951,-2.7959,-2.7957,-2.796,-2.7964,-2.7965,-2.7967,-2.7967,-2.7968,-2.7968,-2.7968,-2.7974,-2.7979,-2.7967,-2.7977,-2.7968,-2.7968,-2.7965,-2.7965,-2.794,-2.7967,-2.7967,-2.7967,-2.7967,0,-2.7935,-2.7933,-2.7942,-2.7942,-2.7938,-2.7947,-2.7943,-2.7947,-2.7949,-2.7948,-2.7956,-2.7954,-2.7962,-2.796,-2.7964,-2.7958,-2.7959,-2.796,-2.7961,-2.7959,-2.7958,-2.7958,-2.7958,-2.7966,-2.7966,-2.7966,-2.7966,0,-2.7919,-2.7926,-2.7925,-2.7931,-2.7932,-2.793,-2.7934,-2.7932,-2.7936,-2.7934,-2.7934,-2.794,-2.7937,-2.7943,-2.7942,-2.7944,-2.7935,-2.7939,-2.7934,-2.7934,-2.7925,-2.7925,-2.7897,-2.7893,-2.7924,-2.7924,-2.7923,0,-2.7912,-2.791,-2.7916,-2.7915,-2.7917,-2.7917,-2.7917,-2.7924,-2.7923,-2.7925,-2.7922,-2.7921,-2.792,-2.7915,-2.7919,-2.7917,-2.7919,-2.7909,-2.7919,-2.7915,-2.7916,-2.7916,-2.7914,-2.7907,-2.7907,-2.7907,-2.7906,0,-2.7897,-2.7899,-2.79,-2.79,-2.7899,-2.79,-2.7901,-2.79,-2.7907,-2.7905,-2.7903,-2.7902,-2.79,-2.7897,-2.7895,-2.7896,-2.7901,-2.7903,-2.7901,-2.7898,-2.7894,-2.7894,-2.7927,-2.7904,-2.7904,-2.7904,-2.7904,-2.7905,-2.7884,-2.7882,-2.7884,-2.7883,-2.7884,-2.7884,-2.7882,-2.7884,-2.7883,-2.7881,-2.7885,-2.7881,-2.7881,-2.7879,-2.7879,-2.7875,-2.7879,-2.7876,-2.7875,-2.7874,-2.7871,-2.7896,-2.7875,-2.7875,-2.7875,-2.7875,-2.7875,0,-2.7868,-2.7869,-2.7868,-2.7868,-2.7866,-2.7871,-2.7872,-2.7869,-2.7866,-2.7866,-2.7864,-2.7859,-2.7856,-2.7857,-2.7854,-2.7849,-2.7851,-2.7848,-2.7848,-2.7847,-2.7869,-2.787,-2.7846,-2.7846,-2.7846,-2.7846,-2.7846,-2.7846,-2.7859,-2.7855,-2.7857,-2.7851,-2.7852,-2.7848,-2.7848,-2.7846,-2.7846,-2.784,-2.7837,-2.7838,-2.7838,-2.7833,-2.7829,-2.783,-2.7827,-2.7822,-2.7823,-2.7843,-2.7846,-2.7849,-2.785,-2.7822,-2.7822,-2.7802,-2.7802,-2.7802]}]]